When you browse on this site, cookies collect data to enhance your experience and personalize the content and advertising you see.
Visit our Privacy Policy to learn more. By continuing to use the site, you agree to this use of cookies and data.
  • In Italy
  • List of Countries
  • For 7 days
  • Water Temperature
  • Satellite Maps
  • Weather Map
  • Weather Widgets
  • user-avatar
    Login

    Hourly Weather Tychnowy

    Today, 23 July, Tuesday

    Time Temperature Precipitation Wind Pressure Humidity
    00:00 +16°C° 0 mm 2 mps 758 mmHg 78%
    01:00 +16°C° 0 mm 2 mps 758 mmHg 82%
    02:00 +16°C° 0 mm 2 mps 758 mmHg 82%
    03:00 +16°C° 0 mm 1 mps 758 mmHg 81%
    04:00 +16°C° 0 mm 1 mps 758 mmHg 81%
    05:00 +16°C° 0 mm 1 mps 758 mmHg 82%
    06:00 +16°C° 0 mm 1 mps 758 mmHg 83%
    07:00 +16°C° 0 mm 1 mps 758 mmHg 84%
    08:00 +16°C° 0 mm 1 mps 758 mmHg 84%
    09:00 +18°C° 0 mm 1 mps 758 mmHg 84%
    10:00 +18°C° 0 mm 1 mps 758 mmHg 84%
    11:00 +18°C° 0 mm 1 mps 758 mmHg 84%
    12:00 +17°C° 0 mm 2 mps 758 mmHg 84%
    13:00 +18°C° 0 mm 2 mps 758 mmHg 83%
    14:00 +18°C° 0 mm 2 mps 758 mmHg 83%
    15:00 +19°C° 0 mm 2 mps 758 mmHg 83%
    16:00 +20°C° 0 mm 1 mps 758 mmHg 83%
    17:00 +20°C° 0 mm 1 mps 758 mmHg 85%
    18:00 +20°C° 0 mm 1 mps 757 mmHg 87%
    19:00 +20°C° 0 mm 1 mps 757 mmHg 89%
    20:00 +20°C° 0 mm 1 mps 757 mmHg 91%
    21:00 +19°C° 0 mm 1 mps 757 mmHg 93%
    22:00 +18°C° 0 mm 1 mps 757 mmHg 95%
    23:00 +18°C° 0 mm 1 mps 757 mmHg 95%

    Tomorrow, 24 July, Wednesday

    Time Temperature Precipitation Wind Pressure Humidity
    00:00 +18°C° 0 mm 1 mps 757 mmHg 96%
    01:00 +18°C° 0 mm 1 mps 757 mmHg 96%
    02:00 +18°C° 0 mm 1 mps 757 mmHg 96%
    03:00 +16°C° 0 mm 0 mps 757 mmHg 96%
    04:00 +16°C° 0 mm 0 mps 757 mmHg 96%
    05:00 +19°C° 0 mm 1 mps 757 mmHg 93%
    06:00 +20°C° 0 mm 1 mps 757 mmHg 89%
    07:00 +21°C° 0 mm 1 mps 757 mmHg 86%
    08:00 +22°C° 0.2 mm 1 mps 757 mmHg 82%
    09:00 +24°C° 0.2 mm 2 mps 757 mmHg 77%
    10:00 +25°C° 0.2 mm 2 mps 757 mmHg 73%
    11:00 +25°C° 0.4 mm 2 mps 757 mmHg 70%
    12:00 +26°C° 0.4 mm 2 mps 757 mmHg 68%
    13:00 +27°C° 0.4 mm 2 mps 757 mmHg 65%
    14:00 +27°C° 0.1 mm 2 mps 757 mmHg 64%
    15:00 +27°C° 0.1 mm 2 mps 757 mmHg 63%
    16:00 +27°C° 0.1 mm 3 mps 757 mmHg 62%
    17:00 +25°C° 0 mm 3 mps 757 mmHg 68%
    18:00 +24°C° 0 mm 2 mps 757 mmHg 74%
    19:00 +23°C° 0 mm 2 mps 757 mmHg 80%
    20:00 +20°C° 0 mm 2 mps 757 mmHg 85%
    21:00 +19°C° 0 mm 2 mps 757 mmHg 89%
    22:00 +17°C° 0 mm 2 mps 758 mmHg 93%
    23:00 +17°C° 0 mm 2 mps 758 mmHg 93%

    Day after tomorrow, 25 July, Thursday

    Time Temperature Precipitation Wind Pressure Humidity
    00:00 +18°C° 0 mm 1 mps 758 mmHg 93%
    01:00 +16°C° 0 mm 1 mps 758 mmHg 93%
    02:00 +16°C° 0 mm 1 mps 758 mmHg 93%
    03:00 +16°C° 0 mm 1 mps 758 mmHg 93%
    04:00 +16°C° 0 mm 1 mps 758 mmHg 93%
    05:00 +18°C° 0 mm 1 mps 758 mmHg 88%
    06:00 +18°C° 0 mm 2 mps 758 mmHg 82%
    07:00 +20°C° 0 mm 2 mps 758 mmHg 76%
    08:00 +21°C° 0 mm 2 mps 758 mmHg 71%
    09:00 +23°C° 0 mm 2 mps 758 mmHg 66%
    10:00 +25°C° 0 mm 3 mps 758 mmHg 61%
    11:00 +26°C° 0 mm 3 mps 758 mmHg 57%
    12:00 +26°C° 0 mm 3 mps 758 mmHg 54%
    13:00 +27°C° 0 mm 3 mps 758 mmHg 51%
    14:00 +26°C° 0 mm 4 mps 758 mmHg 51%
    15:00 +26°C° 0 mm 4 mps 758 mmHg 52%
    16:00 +25°C° 0 mm 5 mps 757 mmHg 53%
    17:00 +23°C° 0 mm 4 mps 757 mmHg 60%
    18:00 +21°C° 0 mm 3 mps 757 mmHg 67%
    19:00 +20°C° 0 mm 3 mps 757 mmHg 74%
    20:00 +18°C° 0 mm 2 mps 757 mmHg 80%
    21:00 +17°C° 0 mm 2 mps 757 mmHg 85%
    22:00 +16°C° 0 mm 2 mps 758 mmHg 90%
    23:00 +16°C° 0 mm 2 mps 757 mmHg 92%

    26 July, Friday

    Time Temperature Precipitation Wind Pressure Humidity
    00:00 +15°C° 0 mm 2 mps 757 mmHg 94%
    01:00 +15°C° 0 mm 2 mps 757 mmHg 95%
    02:00 +15°C° 0 mm 2 mps 757 mmHg 96%
    03:00 +15°C° 0 mm 2 mps 757 mmHg 96%
    04:00 +15°C° 0 mm 2 mps 757 mmHg 97%
    05:00 +17°C° 0 mm 3 mps 757 mmHg 92%
    06:00 +19°C° 0 mm 3 mps 756 mmHg 87%
    07:00 +20°C° 0 mm 3 mps 756 mmHg 82%
    08:00 +22°C° 0.1 mm 4 mps 756 mmHg 74%
    09:00 +23°C° 0.1 mm 4 mps 757 mmHg 66%
    10:00 +26°C° 0.1 mm 4 mps 757 mmHg 58%
    11:00 +26°C° 0 mm 4 mps 756 mmHg 56%
    12:00 +26°C° 0 mm 4 mps 756 mmHg 54%
    13:00 +26°C° 0 mm 5 mps 756 mmHg 52%
    14:00 +26°C° 0.1 mm 5 mps 756 mmHg 56%
    15:00 +25°C° 0.1 mm 5 mps 755 mmHg 59%
    16:00 +25°C° 0.1 mm 5 mps 755 mmHg 62%
    17:00 +22°C° 0 mm 5 mps 755 mmHg 68%
    18:00 +21°C° 0 mm 4 mps 755 mmHg 73%
    19:00 +20°C° 0 mm 4 mps 755 mmHg 79%
    20:00 +19°C° 0 mm 3 mps 755 mmHg 84%
    21:00 +18°C° 0 mm 3 mps 755 mmHg 89%
    22:00 +17°C° 0 mm 3 mps 755 mmHg 94%
    23:00 +17°C° 0 mm 2 mps 755 mmHg 94%

    27 July, Saturday

    Time Temperature Precipitation Wind Pressure Humidity
    00:00 +17°C° 0 mm 2 mps 755 mmHg 95%
    01:00 +17°C° 0 mm 2 mps 755 mmHg 95%
    02:00 +17°C° 0 mm 2 mps 755 mmHg 96%
    03:00 +16°C° 0 mm 2 mps 754 mmHg 96%
    04:00 +16°C° 0 mm 2 mps 754 mmHg 96%
    05:00 +18°C° 0 mm 3 mps 754 mmHg 91%
    06:00 +19°C° 0 mm 3 mps 754 mmHg 87%
    07:00 +21°C° 0 mm 4 mps 755 mmHg 82%
    08:00 +22°C° 0 mm 4 mps 755 mmHg 76%
    09:00 +25°C° 0 mm 4 mps 755 mmHg 69%
    10:00 +26°C° 0 mm 4 mps 754 mmHg 63%
    11:00 +27°C° 0 mm 5 mps 754 mmHg 60%
    12:00 +28°C° 0 mm 5 mps 754 mmHg 58%
    13:00 +29°C° 0 mm 5 mps 753 mmHg 55%
    14:00 +28°C° 0.2 mm 5 mps 753 mmHg 58%
    15:00 +28°C° 0.2 mm 5 mps 753 mmHg 61%
    16:00 +28°C° 0.2 mm 5 mps 753 mmHg 63%
    17:00 +27°C° 0.2 mm 5 mps 753 mmHg 69%
    18:00 +26°C° 0.2 mm 4 mps 753 mmHg 75%
    19:00 +25°C° 0.2 mm 3 mps 753 mmHg 81%
    20:00 +24°C° 0 mm 3 mps 753 mmHg 84%
    21:00 +21°C° 0 mm 3 mps 753 mmHg 88%
    22:00 +20°C° 0 mm 3 mps 753 mmHg 92%
    23:00 +20°C° 0 mm 3 mps 753 mmHg 92%

    28 July, Sunday

    Time Temperature Precipitation Wind Pressure Humidity
    00:00 +20°C° 0 mm 3 mps 753 mmHg 93%
    01:00 +19°C° 0 mm 3 mps 753 mmHg 93%
    02:00 +19°C° 0 mm 3 mps 753 mmHg 94%
    03:00 +19°C° 0 mm 3 mps 753 mmHg 94%
    04:00 +18°C° 0 mm 3 mps 753 mmHg 95%
    05:00 +20°C° 0 mm 3 mps 753 mmHg 89%
    06:00 +21°C° 0 mm 3 mps 753 mmHg 84%
    07:00 +24°C° 0 mm 3 mps 753 mmHg 78%
    08:00 +25°C° 0 mm 4 mps 753 mmHg 70%
    09:00 +27°C° 0 mm 5 mps 753 mmHg 62%
    10:00 +29°C° 0 mm 5 mps 753 mmHg 55%
    11:00 +29°C° 0 mm 5 mps 753 mmHg 53%
    12:00 +30°C° 0 mm 5 mps 753 mmHg 52%
    13:00 +30°C° 0 mm 5 mps 753 mmHg 51%
    14:00 +30°C° 0 mm 5 mps 753 mmHg 53%
    15:00 +30°C° 0 mm 5 mps 753 mmHg 54%
    16:00 +30°C° 0 mm 5 mps 753 mmHg 56%
    17:00 +28°C° 0 mm 5 mps 753 mmHg 62%
    18:00 +26°C° 0 mm 5 mps 753 mmHg 68%
    19:00 +25°C° 0 mm 4 mps 753 mmHg 75%
    20:00 +23°C° 0 mm 4 mps 753 mmHg 78%
    21:00 +21°C° 0 mm 3 mps 753 mmHg 82%
    22:00 +20°C° 0 mm 3 mps 753 mmHg 86%
    23:00 +20°C° 0 mm 3 mps 754 mmHg 87%
    Show more